Tracking 17996 objects as of 28-February-2017
HD Live streaming from Space Station
objects crossing your sky now

CRRES DEB (CANISTER)

Track CRRES DEB (CANISTER) now!


NORAD ID: 27051
Int'l Code: 1990-065U
Perigee: 337.9 km
Apogee: 30,206.8 km
Inclination: 18.1 °
Period: 528.1 minutes
Semi major axis: 21643 km
RCS: 0.1304 m2 (medium)
Launch date: July 25, 1990
Source: United States (US)
Launch site: AIR FORCE EASTERN TEST RANGE (AFETR)

Note: This is SATELLITE DEBRIS
Your satellite tracking list
Your tracking list is empty





NASA's NSSDC Master Catalog

Two Line Element Set (TLE):
1 27051U 90065U   17057.80750831 +.00000255 +00000-0 +37036-3 0  9991
2 27051 018.1222 280.1839 6900238 122.2939 322.5241 02.72656966039011
Source of the keplerian elements: AFSPC